Regional Weather Roundup
Issued by NWS Wilmington, NC

Current Version | Previous Version | Text Only | Print | Product List | Glossary On
Versions: 1 2 3 4 5 6 7 8 9 10 11 12 13 14 15 16 17 18 19 20 21 22 23 24 25 26 27 28 29 30 31 32 33 34 35 36 37 38 39 40 41 42 43 44 45 46 47 48 49 50
000
ASUS42 KILM 290913
RWRILM
RWRILM
REGIONAL HOURLY WEATHER ROUNDUP
NATIONAL WEATHER SERVICE WILMINGTON NC
500 AM EDT SAT AUG 29 2015

NOTE: "FAIR" INDICATES FEW OR NO CLOUDS BELOW 12,000 FEET WITH NO
SIGNIFICANT WEATHER AND/OR OBSTRUCTIONS TO VISIBILITY.

...............WFO WILMINGTON COUNTY WARNING AREA...............

......COASTAL NC AND SC COUNTIES......

CITY           SKY/WX    TMP DP  RH WIND       PRES   REMARKS
WILMINGTON     PTCLDY    67  65  93 N5        30.12F
N MYRTLE BEACH CLEAR     68  65  90 N5        30.12F
MYRTLE BEACH   CLEAR     70  63  78 N7        30.15S

......INLAND NC AND SC COUNTIES.......

CITY           SKY/WX    TMP DP  RH WIND       PRES   REMARKS
LUMBERTON      CLEAR     65  61  87 CALM      30.15F
ELIZABETHTOWN  CLEAR     64  63  97 CALM      30.15F
WHITEVILLE     CLEAR     65  63  91 CALM      30.14S
FLORENCE       CLEAR     66  63  90 N6        30.15S
DARLINGTON     CLEAR     63  59  88 N3        30.17F

....................REST OF NORTH CAROLINA......................

.........EASTERN NC.........

CITY           SKY/WX    TMP DP  RH WIND       PRES   REMARKS
CAPE HATTERAS  CLOUDY    76  70  82 NE9       30.13S
JACKSONVILLE   CLEAR     64  57  77 CALM      30.14F
MOREHEAD CITY  CLEAR     72  70  93 NE6       30.12S
KENANSVILLE      N/A     61  60  97 CALM      30.16F
NEW BERN       CLEAR     69  66  90 NE5       30.15F
ELIZABETH CITY CLEAR     64  62  93 W3        30.17S

.........CENTRAL NC.........

CITY           SKY/WX    TMP DP  RH WIND       PRES   REMARKS
RALEIGH DURHAM PTCLDY    62  60  93 CALM      30.20S
ROCKY MOUNT    FOG       59  58  96 NE3       30.18F VSB 1/2
ROANOKE RAPIDS NOT AVBL
FAYETTEVILLE   CLEAR     62  60  93 N6        30.16F
HOFFMAN        NOT AVBL

.........WESTERN NC.........

CITY           SKY/WX    TMP DP  RH WIND       PRES   REMARKS
CHARLOTTE      PTCLDY    59  56  89 NW5       30.19S
GREENSBORO     PTCLDY    66  59  78 CALM      30.20S
HICKORY        NOT AVBL
BOONE          NOT AVBL
ASHEVILLE      NOT AVBL

.....................REST OF SOUTH CAROLINA.....................

.........EASTERN SC.........

CITY           SKY/WX    TMP DP  RH WIND       PRES   REMARKS
CHARLESTON     PTCLDY    71  68  90 NE7       30.11S
BEAUFORT MCAS  MOCLDY    73  71  93 N9        30.11S
HILTON HEAD    MOCLDY    75  73  94 N5        30.11S

.........CENTRAL SC.........

CITY           SKY/WX    TMP DP  RH WIND       PRES   REMARKS
COLUMBIA       PTCLDY    65  60  84 CALM      30.14F
ORANGEBURG     PTCLDY    67  63  87 CALM      30.14S
SUMTER SHAW    NOT AVBL

.........WESTERN SC.........

CITY           SKY/WX    TMP DP  RH WIND       PRES   REMARKS
GREENVILLE     NOT AVBL
ROCK HILL      CLEAR     60  58  92 CALM      30.19S
ANDERSON       CLEAR     65  63  93 CALM      30.18S
CLEMSON        NOT AVBL
GREENWOOD      PTCLDY    62  60  93 CALM      30.18S


...................COASTAL AND OFFSHORE REPORTS..................

................LOCAL PIERS AND NC RESERVE................


STATION/POSITION TIME  SKY/WX   TEMP    WIND        PRES    VSBY
                                AIR SEA DIR/SP/G
                 (UTC)          (F)     (DEG/KT/KT) (MB)    (MI)
JOHNY MRCER PIER NOT AVBL
NC RESRV MASNBRO NOT AVBL
OCEAN CREST PIER NOT AVBL
SPRINGMAID  PIER NOT AVBL


................COASTAL AND OFFSHORE BUOYS................


STATION/POSITION TIME  SKY/WX   TEMP    WIND        PRES    VSBY
                                AIR SEA DIR/SP/G
                 (UTC)          (F)     (DEG/KT/KT) (MB)    (MI)
DIMNDSHOAL 41025 0850            78 82   30/ 17/ 19 1019.4F
WVE H/P(F/S)=  5/11 WND WVE H/P(F/S)=  3/ 5 SWL H/P/D(F/S/D)=  3/100/11

CAPE LOOKOUT     0900            77      30/ 19/ 23 1019.5S
ONSLOW BAY 41036 NOT AVBL
ONSLOW BAY 41064 0808            79 81   50/ 17/ 23 1019.7F
ONSLOW BAY 41159 0825               81                N/A
WVE H/P(F/S)=  5/ 5 WND WVE H/P(F/S)=  5/ 5 SWL H/P/D(F/S/D)=  2/110/11

5SE WRITBC 41038 0808            78 82   60/ 14/ 17 1019.8F
MASNBO INL 41110 0819               82                N/A
WVE H/P(F/S)=  4/11 WND WVE H/P(F/S)=  3/ 6 SWL H/P/D(F/S/D)=  2/110/11

WILM HARBR 41108 0811               83                N/A
WVE H/P(F/S)=  4/11 WND WVE H/P(F/S)=  3/ 4 SWL H/P/D(F/S/D)=  2/130/11

27SE WRITB 41037 0800            76 82   50/ 17/ 19   N/A
FRYING PAN 41013 0850            80 81   40/ 17/ 21 1019.1F
WVE H/P(F/S)=  5/ 6 WND WVE H/P(F/S)=  5/ 6 SWL H/P/D(F/S/D)=  2/140/11

SUNST NRSH 41024 0808            73      30/ 10/ 14 1020.1S
CAPRS NRSH 41029 0808            80      40/ 14/ 17 1019.5F
EDISTO     41004 0850            81 84   40/ 14/ 16 1018.4S
WVE H/P(F/S)=  4/ 6 WND WVE H/P(F/S)=  3/ 6 SWL H/P/D(F/S/D)=  2/11



..........OFFSHORE BUOYS BEYOND 100 NM OFFSHORE...........
.....IN A TRIANGLE---HAT TO BERMUDA TO BAHAMAS TO HAT.....


STATION/POSITION TIME  SKY/WX   TEMP    WIND        PRES    VSBY
                                AIR SEA DIR/SP/G
                 (UTC)          (F)     (DEG/KT/KT) (MB)    (MI)
150E HAT   41001 0900            78 82   70/ 12/ 14 1020.0F
W BERMUDA  41048 0850            83 83  220/  8/ 10 1020.1R
WVE H/P(F/S)=  5/10 WND WVE H/P(F/S)=  2/ 3 SWL H/P/D(F/S/D)=  5/ 70/10

ATLANTIC S 41049 0850            83 86   40/  8/ 12 1019.9S
WVE H/P(F/S)=  5/ 9 WND WVE H/P(F/S)=  2/ 3 SWL H/P/D(F/S/D)=  5/120/ 9

E BAHAMAS  41046 0850            84 85   90/ 16/ 17 1017.9F
WVE H/P(F/S)=  7/ 9 WND WVE H/P(F/S)=  5/ 7 SWL H/P/D(F/S/D)=  5/120/ 9

NE BAHAMAS 41047 0850            85 85  140/ 12/ 16 1018.9F
WVE H/P(F/S)=  6/10 WND WVE H/P(F/S)=  3/ 5 SWL H/P/D(F/S/D)=  5/110/10

120E CANVRL41010 0820            83 85  120/ 10/ 10 1018.0S

END


USA.gov is the U.S. government's official web portal to all federal, state and local government web resources and services.